This demonstration page uses our WeatherBlox Daily Observations layout. Learn more.

Left ArrowRight Arrow

39.01783, -85.05884

Hourly Observations for July 3, 2022

Temp ( °F °C ) Dew Point ( °F °C ) Humidity (%) Winds ( mph kmh ) Pressure ( in mb ) Visibility ( mi km ) Precip ( " mm )
12:52 am 00:52 Cloudy with Light Rain 76 24.4 63 17.2 64 64 N 3 6 30.03 1017 10 16 0.00 0.00
1:52 am 01:52 Cloudy 76 24.4 63 17.2 64 64 N 3 6 30.03 1017 10 16 0.00 0.00
2:52 am 02:52 Cloudy 75 23.9 64 17.8 69 69 ENE 3 6 30.01 1016 10 16 0.00 0.00
3:52 am 03:52 Cloudy 74 23.3 63 17.2 69 69 NNW 7 11 30.01 1016 10 16 0.00 0.00
4:52 am 04:52 Cloudy 74 23.3 64 17.8 71 71 N 7 11 30.02 1017 10 16 0.00 0.00
5:52 am 05:52 Mostly Cloudy 72 22.2 65 18.3 79 79 NW 7 11 30.05 1018 10 16 0.00 0.00
6:52 am 06:52 Cloudy 73 22.8 62 16.7 69 69 E 6 9 30.06 1018 8 13 0.00 0.00
7:52 am 07:52 Mostly Cloudy 75 23.9 61 16.1 62 62 ESE 6 9 30.08 1019 10 16 0.00 0.00
8:52 am 08:52 Mostly Cloudy 76 24.4 61 16.1 60 60 SSE 6 9 30.08 1019 10 16 0.00 0.00
9:52 am 09:52 Mostly Cloudy 78 25.6 62 16.7 58 58 SSE 5 7 30.10 1019 10 16 0.00 0.00
10:52 am 10:52 Mostly Cloudy 82 27.8 61 16.1 49 49 NE 6 9 30.11 1020 10 16 0.00 0.00
11:52 am 11:52 Partly Cloudy 83 28.3 61 16.1 48 48 ENE 7 11 30.11 1020 10 16 0.00 0.00
12:52 pm 12:52 Partly Cloudy 84 28.9 62 16.7 48 48 ESE 9 15 30.10 1019 10 16 0.00 0.00
1:52 pm 13:52 Mostly Sunny 86 30 61 16.1 43 43 E 12 19 30.09 1019 10 16 0.00 0.00
2:52 pm 14:52 Partly Cloudy 87 30.6 59 15 39 39 VRB 3 6 30.08 1019 10 16 0.00 0.00
3:52 pm 15:52 Partly Cloudy 89 31.7 61 16.1 39 39 ENE 9 15 30.07 1018 10 16 0.00 0.00
4:52 pm 16:52 Partly Cloudy 87 30.6 60 15.6 40 40 VRB 3 6 30.06 1018 10 16 0.00 0.00
5:52 pm 17:52 Mostly Sunny 87 30.6 60 15.6 40 40 VRB 3 6 30.06 1018 10 16 0.00 0.00
6:52 pm 18:52 Mostly Sunny 86 30 62 16.7 45 45 SSE 6 9 30.06 1018 10 16 0.00 0.00
7:52 pm 19:52 Mostly Sunny 84 28.9 62 16.7 48 48 SE 9 15 30.07 1018 10 16 0.00 0.00
8:52 pm 20:52 Sunny 81 27.2 61 16.1 51 51 ESE 9 15 30.08 1019 10 16 0.00 0.00
9:52 pm 21:52 Clear 78 25.6 63 17.2 60 60 S 5 7 30.08 1019 10 16 0.00 0.00
10:52 pm 22:52 Clear 78 25.6 63 17.2 60 60 Calm 30.10 1019 10 16 0.00 0.00
11:52 pm 23:52 Clear 76 24.4 63 17.2 64 64 S 3 6 30.11 1020 7 11 0.00 0.00

Powered by AerisWeather